Dewpoint
62 62 64 64 65 65 64 62 60 58 58 58 59 60 60 59 59 60 58 57 56 56 57 57 55 56 54 54 54 54 54 56 56 57 56 57 57 56 55 56 54 55 56 58 55 57 60 58 58 59 60 60 59 58 58 60 59 58 57 55 53 50 50 52 40 38 40 41 36 31 36 39 36 39 38 40 41 42 44 44 43 43 39 41 40
61 62 62 63 64 64 63 62 60 58 58 59 60 58 59 59 60 59 59 57 55 55 55 56 56 54 54 52 53 52 53 53 56 56 54 56 56 55 55 53 53 52 55 54 55 55 59 59 58 59 59 58 57 55 55 58 58 56 57 55 45 47 49 41 39 37 41 43 37 34 37 39 36 38 42 42 42 41 39 42 42 40 38 41 40
61 62 63 63 64 64 63 62 60 59 60 59 59 58 59 59 58 59 58 57 56 55 54 56 55 53 53 54 52 53 52 52 55 54 54 55 54 54 54 53 53 53 54 53 51 54 58 59 59 59 60 60 59 57 57 56 53 54 51 47 43 44 42 39 41 41 42 41 42 35 39 39 42 36 39 42 42 40 37 41 41 39 38 43 43
60 62 62 63 63 63 63 61 61 60 59 59 60 59 59 59 58 58 57 57 55 56 55 54 53 53 53 52 52 51 50 51 53 53 52 52 52 53 52 54 53 53 52 51 49 52 55 59 60 60 60 60 58 55 54 54 54 51 48 48 45 42 46 46 44 45 44 42 43 34 38 40 39 38 37 41 43 40 39 39 42 42 41 41 43
60 60 62 62 62 62 61 61 62 61 59 58 59 59 59 58 58 57 57 56 55 55 53 53 52 50 53 51 50 49 49 47 50 52 53 53 52 52 52 51 52 52 51 51 55 52 54 59 60 60 59 59 58 54 53 55 48 49 48 45 42 44 46 44 43 42 43 44 44 42 42 40 39 41 37 38 41 42 41 40 40 41 43 42 40
59 60 60 60 61 62 62 62 61 62 60 58 59 58 58 58 58 58 55 54 55 53 52 52 49 47 49 49 47 47 45 46 48 49 51 52 54 53 52 52 52 50 50 50 49 52 55 57 59 60 59 59 58 55 55 53 48 48 47 44 41 43 47 45 45 44 41 40 44 43 44 41 41 42 40 40 42 42 41 41 40 41 41 43 42
59 59 59 61 61 63 63 63 63 63 61 59 59 57 56 58 57 57 55 54 52 52 51 50 50 48 47 48 47 47 45 44 47 48 50 50 52 52 53 53 51 52 51 49 49 51 52 52 60 60 60 60 58 57 54 54 52 50 50 49 41 45 46 43 41 43 43 42 42 43 42 43 45 42 39 40 40 40 44 43 42 38 42 43 44
58 58 59 60 60 61 61 63 64 62 61 59 58 58 58 58 57 56 53 52 51 49 48 48 49 47 48 48 47 47 46 45 46 48 48 50 51 52 52 53 51 52 52 50 51 51 52 54 59 61 61 60 57 57 55 53 52 52 50 49 49 48 46 46 45 44 43 45 42 43 42 42 42 44 39 39 39 39 39 42 42 42 43 45 46
56 58 60 60 60 60 61 62 63 61 61 59 59 58 58 57 55 53 51 50 50 48 48 47 46 45 44 47 45 47 52 53 49 50 52 50 50 50 50 49 50 51 52 51 51 50 51 53 54 60 58 57 51 53 54 55 57 54 52 52 51 50 48 47 48 45 46 45 45 47 47 45 44 44 43 42 40 40 43 44 43 44 44 45 44
60 60 59 59 59 58 61 62 60 60 58 58 57 58 56 55 53 52 51 51 51 50 48 48 47 47 48 48 51 58 55 53 46 42 42 48 54 48 50 49 48 49 51 50 50 50 50 52 53 56 54 52 50 46 44 46 48 56 56 54 53 52 50 49 48 46 47 46 45 46 46 47 45 47 45 46 45 45 44 45 43 43 45 45 46
59 59 59 56 55 56 60 61 57 58 58 57 58 56 53 52 51 50 50 50 51 49 49 48 48 49 49 53 56 55 52 45 40 39 40 40 49 55 48 49 47 48 49 49 49 49 50 50 50 54 56 53 57 44 43 43 42 42 43 44 48 60 52 52 49 49 47 46 47 46 46 47 47 47 48 46 48 47 45 45 44 45 44 43 41
56 55 55 55 57 58 58 58 57 58 59 57 57 56 56 54 54 55 56 56 54 53 53 53 57 57 56 54 54 52 48 39 38 39 40 40 42 53 54 50 49 49 48 48 47 47 49 51 52 53 54 57 50 53 50 43 42 42 42 42 41 41 42 56 54 50 49 48 46 47 46 47 47 48 46 47 46 47 47 47 46 44 45 43 43
52 53 53 54 55 55 54 54 54 54 55 56 56 55 55 55 55 55 57 58 57 56 56 56 54 53 52 50 48 47 44 38 37 38 39 39 39 47 51 50 47 48 49 49 48 48 48 50 52 53 50 55 52 52 52 51 43 41 43 43 42 41 40 40 41 52 51 52 50 47 46 46 46 45 48 48 51 48 48 44 47 46 45 43 44
50 51 52 52 52 53 54 53 54 54 54 54 55 54 54 54 56 57 57 58 58 58 57 55 54 51 49 47 45 43 42 39 37 37 38 37 37 41 57 50 49 48 49 50 52 51 51 50 50 52 52 52 50 54 50 53 54 53 55 54 51 55 42 40 40 39 47 52 51 51 51 49 47 49 54 50 47 45 45 45 48 46 47 47 51
48 49 50 50 51 51 51 51 51 52 53 54 53 52 52 52 52 54 56 58 58 58 59 57 54 52 49 47 44 43 42 37 37 37 37 37 37 39 56 53 51 50 50 51 51 51 51 51 51 50 50 52 55 64 53 52 52 53 54 53 51 50 52 54 54 52 53 53 51 50 50 51 52 56 53 52 50 49 50 50 50 49 49 51 53
47 48 47 48 48 47 48 49 50 50 51 52 51 51 52 52 52 54 53 53 50 51 52 52 50 49 48 46 45 43 42 37 36 36 36 36 36 53 54 54 53 53 54 54 52 51 51 51 51 49 50 56 46 38 43 52 53 51 51 51 51 52 52 51 52 51 54 52 52 51 50 64 51 62 61 59 55 57 52 52 52 52 50 48 47
45 46 46 47 47 47 47 47 49 50 50 50 50 50 50 50 51 48 47 48 48 48 48 48 49 48 47 46 45 43 41 38 36 36 36 36 40 52 53 52 51 53 54 56 54 55 56 56 56 55 60 54 40 38 39 42 55 53 50 51 51 51 50 58 51 46 46 47 45 42 40 39 40 40 41 41 54 55 53 51 51 51 49 47 49
45 45 46 47 47 48 47 46 47 47 46 45 46 46 47 47 48 48 47 45 45 45 45 46 47 48 48 47 45 44 41 39 36 36 36 36 38 49 50 50 52 52 53 54 54 54 56 54 54 54 56 50 38 39 39 49 56 56 55 54 52 52 51 53 57 57 41 40 41 41 40 40 40 40 40 41 41 44 51 48 51 50 53 53 50
43 43 44 45 46 45 46 47 47 46 46 45 44 44 44 44 46 48 50 47 44 42 42 43 44 46 48 47 49 47 43 40 36 36 36 36 40 43 46 46 47 49 50 49 50 51 53 48 44 45 47 42 37 37 38 44 53 56 56 56 54 55 56 59 58 57 57 56 55 54 51 46 49 51 51 43 41 44 52 51 50 49 50 51 49
44 41 40 44 45 43 43 43 43 43 44 42 42 42 43 44 43 42 45 41 42 40 40 41 41 42 44 44 46 48 46 40 37 36 36 36 37 41 46 44 45 45 45 44 44 45 47 50 42 37 36 36 36 36 37 37 47 50 52 54 55 55 53 53 55 56 57 56 56 57 56 55 54 53 52 53 51 49 51 51 51 49 49 48 49
40 41 40 39 39 39 39 40 40 40 40 43 42 40 41 41 41 41 42 42 42 41 42 42 42 42 43 43 42 41 43 44 38 36 36 36 36 37 44 45 41 39 39 38 38 39 39 48 46 37 36 36 37 37 37 37 37 45 48 49 53 47 44 51 53 49 55 56 56 56 56 55 55 54 53 52 52 52 50 51 51 51 50 49 48
39 38 37 37 37 38 38 39 40 41 40 41 40 40 40 40 40 40 39 41 42 41 41 40 40 40 41 43 45 41 39 44 42 36 36 36 36 36 39 41 37 37 38 36 37 38 39 41 43 38 36 36 36 36 37 37 37 43 46 41 40 39 46 48 50 51 53 54 52 53 55 55 55 53 53 52 51 52 52 51 52 52 54 54 51
40 38 37 38 38 38 39 39 40 40 40 40 40 40 40 40 40 40 41 41 41 40 40 41 41 40 42 41 43 43 42 37 38 39 35 36 36 36 35 36 34 42 39 40 40 39 40 42 42 38 36 36 36 36 36 37 37 42 39 39 39 38 41 47 48 49 48 50 53 53 52 52 53 52 55 55 55 52 51 53 53 53 51 48 47
43 42 40 37 37 37 37 38 39 40 40 40 40 40 40 39 38 39 39 38 38 38 37 38 37 37 38 37 38 37 41 40 37 37 38 35 35 35 35 34 33 39 37 35 36 36 40 40 38 36 36 36 36 36 36 36 39 38 38 38 38 39 45 46 46 47 47 47 48 49 51 52 51 52 51 50 51 53 51 50 51 51 52 48 44
42 42 40 39 38 38 39 39 39 39 38 39 38 38 39 39 37 38 39 38 37 36 33 34 33 34 33 37 37 38 40 41 41 38 37 35 35 35 35 35 35 33 43 37 38 40 37 35 35 35 35 36 35 36 36 37 37 37 36 36 38 45 46 45 45 46 46 45 45 46 46 48 49 49 55 55 55 52 50 49 49 47 45 44 44
38 38 36 36 37 36 38 37 38 39 39 38 38 38 38 37 37 38 37 36 36 36 33 32 33 35 36 37 37 38 40 41 42 41 38 38 36 35 35 35 36 36 37 39 36 36 36 35 36 36 36 37 41 41 39 39 38 39 36 36 46 44 42 43 45 45 45 44 43 44 44 45 45 48 51 51 53 48 47 47 46 45 44 43 41
38 37 37 36 37 35 36 37 37 37 38 38 38 38 38 39 39 37 37 37 38 36 36 34 35 35 36 36 37 38 39 39 39 39 39 38 38 38 45 44 37 36 37 40 38 40 42 41 37 35 35 35 35 35 36 36 39 41 42 43 42 43 43 44 43 45 45 45 45 45 45 47 47 49 48 48 48 48 47 45 44 44 42 41 40
37 37 36 36 35 36 36 34 36 36 35 34 33 34 36 38 39 38 37 37 38 39 39 38 37 38 37 36 37 37 37 39 38 38 37 37 37 37 38 39 39 38 38 39 39 38 39 37 38 40 40 40 40 41 40 42 41 42 40 38 38 37 39 44 44 45 44 45 46 46 48 49 48 46 45 46 45 44 44 42 44 42 40 40 41
36 36 36 36 35 35 36 35 36 37 37 36 36 36 35 35 39 40 39 37 37 38 39 39 37 39 38 38 37 39 38 38 37 35 36 35 35 37 37 37 38 38 38 35 38 40 39 38 37 37 38 36 35 37 37 36 35 38 40 40 40 40 42 42 43 45 46 46 46 47 47 49 49 49 45 45 45 45 42 42 42 40 38 38 37
36 35 34 35 35 34 36 35 35 34 35 37 37 37 34 35 37 37 38 35 34 35 35 37 38 37 38 39 39 37 37 37 34 34 35 35 35 35 35 35 34 36 35 34 35 37 37 36 37 35 34 33 33 33 34 34 35 35 36 36 37 38 38 40 42 43 45 44 46 45 44 43 45 46 46 46 45 46 44 40 41 39 37 37 35
34 34 34 33 33 34 34 34 34 34 34 34 37 36 36 36 34 35 35 35 35 35 34 35 34 35 36 37 37 35 34 34 34 34 35 35 35 35 35 35 35 35 34 34 36 36 35 34 32 33 33 34 34 35 35 36 35 37 38 38 39 39 37 39 40 40 41 41 40 42 42 43 42 43 43 42 43 43 40 41 40 38 38 37 34
33 33 33 33 33 32 33 33 34 34 32 32 32 33 35 36 36 34 35 35 35 35 35 35 35 35 35 35 36 38 35 34 34 34 35 35 35 34 34 34 34 34 34 34 35 35 34 34 33 33 33 34 34 34 35 36 36 37 37 36 37 38 38 38 39 40 41 42 41 39 40 41 41 40 40 39 37 39 38 36 36 35 35 34 34
34 33 33 32 31 31 31 32 34 34 34 32 33 31 30 30 34 36 35 34 35 35 35 35 35 35 35 35 35 34 33 34 35 35 35 35 35 34 34 34 34 34 33 35 35 33 34 35 36 36 36 35 35 36 37 38 37 37 37 37 36 37 38 38 40 42 40 41 39 40 40 39 39 38 37 35 35 35 36 35 37 36 35 34 32
32 30 31 35 34 33 34 34 32 32 32 31 30 30 30 33 31 32 35 35 36 35 35 35 35 35 35 35 35 35 35 35 35 35 35 35 35 34 34 35 35 35 35 37 37 35 36 36 36 36 36 36 36 36 37 37 37 38 37 38 38 38 39 39 39 39 39 39 38 37 37 38 39 37 36 35 35 35 34 34 35 33 33 34 33
33 31 31 33 33 33 32 31 32 33 33 33 30 29 32 31 30 30 29 30 32 37 37 36 35 34 36 35 35 35 35 35 35 35 35 35 35 34 34 38 36 35 37 39 36 36 36 36 36 36 37 37 37 37 38 39 38 38 37 37 37 37 37 36 36 37 37 37 37 37 37 37 38 37 36 34 33 33 33 33 34 35 34 33 33
31 32 33 33 32 32 32 33 33 33 33 32 33 32 30 29 31 30 29 29 29 30 30 37 36 34 35 35 34 34 35 35 35 35 34 34 34 34 34 34 34 35 35 36 37 38 37 37 38 38 38 38 39 37 37 36 37 36 36 36 35 35 35 35 35 34 35 35 35 35 36 36 37 35 34 35 36 33 33 33 33 33 33 32 31
31 30 29 29 30 29 31 32 34 32 31 31 32 32 30 32 29 29 30 30 30 31 33 30 35 38 36 36 36 34 34 34 34 34 34 34 34 35 35 35 35 36 36 37 37 37 38 38 38 37 37 37 36 36 35 35 35 35 35 35 35 34 34 34 34 34 34 34 34 34 35 35 34 34 33 33 32 33 33 33 31 31 30 29 29
32 30 29 30 32 35 33 31 34 31 31 32 32 32 31 30 29 28 28 29 29 30 31 30 31 31 30 33 36 35 34 34 35 34 34 34 34 34 34 35 36 36 36 37 37 37 37 36 36 36 35 35 35 35 34 35 34 34 34 34 33 33 34 33 33 34 33 33 33 34 34 34 34 33 33 33 32 32 31 31 30 29 29 29 28
36 32 32 32 33 32 28 31 29 30 30 31 30 31 30 30 29 29 30 29 29 30 29 31 31 31 32 32 33 35 35 31 31 31 33 33 34 34 35 36 36 35 36 36 36 36 36 35 35 35 35 35 35 34 34 34 34 34 34 33 33 33 32 32 33 33 33 33 33 33 33 33 33 33 32 32 31 31 30 31 30 29 28 27 28
32 33 31 30 32 33 30 28 28 28 29 31 30 30 30 30 30 30 30 29 29 29 30 31 31 33 33 32 33 35 34 31 31 32 33 33 33 34 35 35 35 35 36 36 36 36 35 35 35 34 34 34 34 34 34 34 34 34 34 33 32 32 32 33 33 33 33 33 33 33 33 33 33 33 33 32 32 31 30 29 28 28 28 28 29
33 33 32 31 29 29 30 27 27 30 32 30 31 30 31 31 31 30 30 30 29 29 31 32 32 32 31 32 32 32 33 32 32 33 33 33 33 34 34 35 35 35 35 35 35 35 35 35 35 35 34 34 34 35 35 34 34 33 32 32 32 32 33 33 33 33 33 33 33 33 33 33 33 33 32 32 33 32 30 29 29 30 30 30 29
33 31 29 32 33 31 29 27 27 31 31 31 31 31 31 31 31 31 31 30 29 30 31 31 32 31 31 31 32 32 33 33 32 33 34 33 33 33 33 34 34 35 34 35 35 35 35 35 35 35 35 35 34 34 34 33 32 32 32 32 31 31 31 32 32 33 33 32 32 32 32 32 32 32 32 32 30 30 30 30 30 30 30 30 30
34 31 29 27 29 29 29 28 27 30 30 31 32 32 32 31 32 32 31 31 31 30 30 30 30 30 30 30 31 31 33 32 32 32 32 33 33 33 33 33 33 34 34 34 34 35 35 34 34 35 35 35 36 34 32 31 31 31 31 31 30 31 31 31 32 32 32 32 32 32 32 32 31 31 31 31 31 30 30 30 30 30 30 29 29
35 32 30 27 27 26 27 27 29 31 33 31 32 31 32 32 32 32 31 32 31 31 30 30 30 30 31 30 33 30 32 32 32 32 32 32 33 33 33 33 33 33 33 33 33 33 34 33 33 34 35 36 36 36 34 33 32 31 31 30 30 30 29 30 30 31 31 30 30 30 31 31 30 30 30 30 30 30 30 29 29 29 29 29 29
34 32 30 27 26 28 26 26 30 30 31 32 32 32 31 32 32 31 31 31 31 31 30 30 30 30 30 31 31 31 31 31 32 32 32 32 32 32 32 33 33 32 31 31 32 32 33 32 33 33 33 34 34 34 34 34 34 33 31 30 30 29 30 30 30 30 30 30 29 30 30 30 30 30 29 30 30 30 29 29 28 29 29 29 29
33 32 29 29 27 26 26 26 28 30 30 30 31 32 32 32 32 31 30 31 31 31 30 31 31 31 31 32 32 31 31 32 32 32 32 32 32 32 31 31 31 31 30 30 30 31 30 31 31 31 31 31 33 33 32 32 32 33 33 33 32 31 30 30 31 30 31 31 29 29 29 29 29 30 30 30 29 29 29 29 29 29 29 28 28
35 33 31 28 26 26 26 27 25 27 30 31 33 32 32 32 31 30 31 32 31 31 31 31 31 31 32 32 32 32 31 31 31 32 32 33 32 31 30 29 30 29 29 29 30 29 30 29 30 30 30 30 31 32 31 30 31 31 31 32 32 31 32 31 30 30 31 32 32 30 29 28 28 28 28 28 28 28 29 29 28 29 29 28 27
35 32 30 29 27 26 26 26 28 28 30 31 32 32 31 31 32 31 32 32 32 31 31 31 31 31 32 31 32 31 31 31 31 31 31 31 30 29 29 28 27 27 27 28 28 28 28 28 28 28 28 28 29 30 30 31 31 31 31 31 31 31 31 32 31 30 30 31 31 29 29 28 27 27 28 29 29 28 28 27 27 27 27 27 26
33 33 31 29 27 26 25 25 24 24 27 29 30 30 30 31 30 30 30 31 30 31 32 31 32 32 32 33 32 31 31 31 30 30 29 30 30 29 28 29 28 27 25 25 25 27 28 27 27 27 28 28 28 29 29 30 30 30 31 30 31 31 31 31 32 31 32 33 27 29 27 28 28 28 28 29 28 27 26 27 27 27 26 26 26
31 31 31 29 27 26 25 25 25 24 26 28 28 29 29 30 30 31 30 30 30 31 31 31 31 32 32 31 31 31 31 30 29 29 29 30 29 29 28 29 28 27 26 26 25 25 25 26 27 27 28 28 28 29 29 30 30 30 30 30 30 30 30 31 32 32 32 31 27 27 27 28 29 28 28 28 27 27 27 27 27 27 26 26 26
29 30 30 29 28 26 25 26 24 24 24 25 27 27 28 28 28 30 31 31 30 30 31 31 31 31 32 31 31 32 30 30 30 29 29 29 29 28 28 29 27 28 27 27 26 25 27 27 25 25 26 27 28 28 29 29 29 29 29 29 29 29 30 30 31 31 31 33 30 26 27 28 29 29 29 29 29 27 27 27 27 26 26 25 25